Theta_e
296 297 298 299 299 299 299 300 300 301 303 303 300 301 307 306 299 297 307 312 306 307 307 310 317 322 322 318 322 324 322 318 324 328 325 326 327 331 331 338 340 340 338 340 341 341 341 339 341 342 343 343 346 348 347 347 346 347 351 351 352 351 352 352 354 356 356 357 359 359 358 359 359 358 357 358 358 359 359 358 357 357 358 358 359 359 360
295 297 298 299 298 298 298 298 299 300 301 301 302 302 303 304 305 306 306 313 307 307 308 310 312 321 319 321 324 318 319 317 325 324 327 322 324 326 329 334 336 341 340 342 343 342 342 340 341 340 342 344 344 344 345 347 347 348 350 352 353 351 351 353 357 357 358 359 359 360 359 359 360 360 358 358 358 359 360 358 359 359 359 359 358 358 358
294 296 298 299 298 297 296 298 299 300 301 302 303 303 303 304 302 303 303 309 309 311 317 314 316 325 318 316 314 315 320 321 319 322 324 328 328 328 331 335 334 338 340 342 343 343 343 342 341 341 342 343 344 342 343 344 347 348 349 353 351 351 352 354 356 358 359 358 360 359 359 360 360 360 359 359 359 360 360 360 359 360 359 358 358 358 358
292 296 296 296 297 297 298 298 299 300 301 300 302 302 304 303 303 304 302 302 304 312 314 314 316 315 315 316 320 321 322 320 322 324 325 329 333 333 331 333 333 335 336 339 341 341 339 339 341 341 342 342 342 341 343 344 345 347 348 349 349 353 354 358 358 358 357 359 359 358 359 359 360 360 359 359 359 360 359 359 360 360 359 359 359 358 358
290 295 296 295 296 296 294 296 299 301 302 303 304 305 307 306 306 303 301 302 309 312 316 314 314 314 316 317 318 320 321 328 322 324 326 328 330 332 334 332 333 330 331 335 341 339 338 339 339 339 341 340 342 343 344 346 347 346 347 348 352 354 355 356 358 359 359 359 359 359 359 359 360 360 360 359 359 360 359 360 361 360 359 358 359 359 358
290 293 294 296 293 288 291 302 303 307 306 306 302 302 304 306 306 305 308 308 313 315 315 313 313 314 317 319 322 327 324 325 330 324 327 328 328 330 330 329 329 331 333 333 334 338 342 341 339 339 341 340 343 344 345 348 347 349 350 350 352 352 356 358 358 359 359 359 358 359 360 359 360 360 359 358 359 359 359 360 360 359 359 358 359 359 358
288 293 294 291 286 290 302 303 312 312 312 310 310 311 310 307 308 307 307 308 312 316 316 317 318 317 319 328 330 322 325 328 326 330 330 336 337 338 339 339 337 337 336 336 337 338 337 338 340 340 340 341 342 343 345 346 349 351 351 351 352 354 356 356 358 359 359 359 359 360 360 360 360 359 358 359 359 359 359 359 358 358 358 357 357 358 357
292 290 290 284 288 298 300 304 312 315 312 312 312 308 309 313 314 314 308 309 311 316 317 316 318 321 328 330 337 338 338 338 339 337 338 339 340 340 343 343 343 343 339 337 335 336 339 339 338 339 339 340 339 339 342 344 346 348 351 353 351 354 356 356 357 359 358 359 359 360 360 359 359 358 358 359 359 360 360 359 360 359 360 358 357 357 357
286 289 289 289 297 295 298 305 308 311 308 310 310 304 311 315 318 317 318 319 316 312 313 314 315 323 324 323 328 336 337 338 338 338 339 339 341 341 343 343 343 346 346 342 339 339 339 337 337 338 339 339 339 339 341 342 347 346 349 351 352 355 354 355 357 358 358 358 359 359 359 358 358 358 358 359 359 360 359 359 358 358 357 357 358 358 357
292 288 287 289 289 287 295 308 312 314 314 315 314 310 309 316 316 317 317 317 320 323 324 317 314 321 314 312 315 332 336 337 337 338 338 339 340 342 342 345 345 347 349 349 346 338 337 339 338 340 341 341 341 343 343 344 346 345 347 351 354 356 355 358 359 359 359 357 358 358 359 358 358 358 359 360 360 360 358 357 357 357 358 357 357 357 356
290 288 285 286 286 291 308 309 310 315 315 316 316 307 303 314 315 317 317 317 320 322 325 326 315 314 307 309 316 335 337 337 337 337 339 339 340 342 343 343 344 346 349 350 349 342 339 337 340 343 342 342 342 345 347 342 344 346 350 353 355 355 356 358 359 359 359 357 355 358 359 358 359 359 360 360 361 361 359 359 358 359 357 356 356 357 358
290 289 286 285 291 292 303 309 312 315 318 314 311 296 298 312 316 316 319 318 319 322 326 327 320 312 307 310 318 336 337 336 336 337 338 340 341 343 344 346 346 348 351 349 343 339 337 342 345 346 343 344 346 347 345 343 344 348 350 351 356 356 356 358 358 360 360 359 358 357 357 359 360 360 361 360 360 359 358 357 357 358 357 356 356 357 357
289 289 289 291 292 301 304 309 315 317 317 312 301 295 309 314 316 317 319 319 320 323 324 326 318 319 324 331 332 335 335 334 335 336 337 339 340 341 343 344 345 348 349 349 347 347 350 350 345 344 343 345 348 349 350 348 346 346 351 356 358 358 359 357 358 360 360 360 357 358 360 360 361 361 362 360 359 359 357 356 357 356 356 355 355 356 356
287 289 287 288 293 302 311 316 315 317 310 300 299 312 315 316 316 319 319 318 321 322 324 325 325 328 331 333 333 333 333 333 334 335 336 338 341 344 344 343 344 347 346 347 348 347 348 348 346 346 349 349 352 352 351 349 351 352 356 359 359 358 359 359 358 360 360 361 361 360 361 362 361 360 360 360 359 359 358 358 356 357 357 355 355 354 357
290 290 288 287 283 300 311 315 312 316 303 307 315 315 318 318 319 318 319 319 320 319 322 327 326 328 329 329 330 330 331 333 333 334 335 336 337 337 338 343 345 345 345 343 342 344 345 347 349 349 347 350 351 352 351 353 354 356 357 358 359 359 359 358 359 360 360 361 358 358 359 360 359 358 360 360 360 360 359 358 357 356 356 357 355 354 354
285 286 284 286 296 313 317 311 304 313 315 317 318 317 316 318 319 317 316 320 319 320 320 326 327 328 327 327 328 329 330 332 334 335 336 336 336 336 337 338 342 345 344 342 341 342 343 345 347 351 354 350 352 351 355 355 356 355 358 360 361 359 359 359 359 360 361 358 358 359 360 360 360 360 360 360 360 359 359 357 355 355 355 357 356 353 353
293 291 297 306 308 310 314 318 318 317 318 319 318 317 316 316 316 315 314 316 319 320 322 325 327 325 325 325 327 328 329 330 331 333 333 333 333 334 335 336 338 340 340 340 340 341 342 343 344 345 350 354 353 351 351 356 360 356 357 358 357 357 355 356 359 360 359 359 360 360 361 360 360 359 360 360 358 360 359 357 356 355 354 353 353 353 354
302 303 303 305 306 308 313 318 321 318 316 317 317 316 316 315 315 315 313 315 317 321 323 322 322 323 325 326 326 328 329 329 330 333 334 334 335 335 336 337 337 338 339 340 340 339 340 342 342 343 344 345 343 343 348 352 358 360 358 356 357 357 358 358 358 358 359 359 360 360 361 360 360 360 359 358 357 358 358 357 357 355 355 355 354 354 354
292 289 308 306 307 312 314 317 319 320 318 317 317 316 316 316 315 315 316 317 317 319 323 322 322 323 325 325 326 327 328 329 330 331 332 333 334 335 335 336 338 338 338 337 337 338 337 340 341 342 343 344 345 347 348 351 355 359 360 356 356 357 357 356 358 358 357 355 355 356 359 359 359 360 359 359 359 358 358 357 356 354 354 354 353 352 351
292 293 299 303 305 305 308 314 315 316 317 317 318 318 318 318 318 317 317 319 319 319 320 321 322 322 323 324 325 326 327 329 330 331 332 333 334 336 337 338 339 338 338 337 337 337 336 338 339 340 341 343 345 347 349 351 354 358 359 360 356 356 357 358 356 357 356 355 354 356 358 359 358 359 360 359 358 357 356 356 355 353 354 352 351 351 351
294 298 300 301 303 305 307 311 316 319 318 318 319 319 318 316 316 317 320 320 318 318 317 320 323 322 321 322 324 326 327 328 329 331 331 333 334 335 336 338 339 338 338 337 337 337 336 338 339 339 341 343 345 347 348 351 354 354 354 355 357 358 359 358 357 355 356 356 355 355 358 360 359 361 359 358 358 359 360 361 359 357 355 353 353 354 354
290 292 298 307 301 302 308 312 315 318 320 321 320 319 317 315 315 316 318 319 320 319 318 318 319 320 320 321 322 324 325 326 328 330 331 332 332 333 335 337 338 338 338 338 337 337 337 339 341 341 342 343 344 344 346 348 350 350 350 350 350 349 349 349 350 352 352 352 353 352 351 352 355 357 349 331 344 357 357 339 323 315 314 347 360 360 360
291 298 303 307 305 303 305 308 312 317 321 322 323 318 315 314 315 317 317 318 318 318 319 319 318 317 318 319 321 322 323 325 328 329 329 329 330 332 333 334 334 334 335 337 337 337 338 339 340 340 340 341 342 342 343 344 345 346 346 344 343 342 342 342 342 345 345 346 348 349 349 349 351 350 351 355 324 317 319 320 314 308 307 307 308 315 345
298 300 301 303 303 302 305 309 313 316 320 322 319 317 316 315 315 317 317 317 317 318 319 320 320 319 319 319 319 320 322 324 326 327 328 329 330 331 332 332 333 333 333 334 334 335 337 339 339 340 340 341 341 341 342 343 343 343 343 343 340 342 343 344 343 347 348 348 348 349 349 349 348 348 347 347 351 330 319 318 317 311 308 307 308 310 313
297 302 303 305 306 306 308 311 312 316 319 320 320 316 316 315 317 318 318 318 319 319 318 319 320 320 319 319 321 321 322 324 325 325 328 328 328 329 331 332 332 332 332 334 335 336 336 337 338 338 339 342 344 344 345 345 343 341 340 341 340 340 340 342 342 341 343 345 346 347 346 346 346 347 347 346 344 344 342 317 310 309 310 308 308 308 309
302 302 303 305 306 306 309 312 314 317 318 320 318 317 318 319 318 317 316 318 319 320 320 319 319 320 320 319 320 322 324 324 325 327 327 327 328 329 330 331 332 333 334 335 335 335 336 336 337 338 338 340 342 344 344 343 342 340 340 340 340 339 339 339 339 338 340 341 341 340 341 341 341 341 342 341 341 340 339 341 342 324 309 305 305 307 307
303 305 304 304 304 306 310 310 312 317 318 318 317 318 319 319 320 319 319 319 319 320 321 321 321 322 321 320 321 323 323 325 327 328 328 328 327 328 330 332 333 333 333 333 334 336 337 337 337 337 336 339 342 342 342 342 341 339 339 338 338 337 336 336 338 337 337 338 337 338 339 339 339 339 338 338 337 336 336 336 335 335 336 339 317 303 313
305 307 308 304 304 308 312 315 317 318 317 316 315 315 316 318 319 319 318 319 319 318 319 320 321 321 320 320 321 321 323 325 326 327 327 327 328 329 331 332 332 332 332 332 333 334 335 335 335 336 337 340 342 343 342 341 340 339 338 337 336 335 335 335 335 335 335 336 337 339 339 338 337 336 336 335 334 333 331 333 332 332 333 337 339 321 306
306 308 311 311 311 314 316 317 317 315 315 315 316 316 317 317 317 316 315 315 316 317 317 318 320 321 320 321 321 321 322 323 324 324 326 327 329 330 331 332 332 332 332 331 332 333 333 333 333 333 335 340 342 342 342 341 340 338 337 337 336 335 335 335 335 336 336 336 336 335 331 334 335 336 335 335 334 333 332 331 331 331 329 329 330 326 313
308 311 311 311 313 316 315 313 313 314 314 314 314 314 316 315 314 313 314 315 317 317 318 319 319 319 321 321 321 321 321 322 323 324 326 326 327 329 330 332 331 331 331 331 331 332 332 332 332 332 333 337 340 342 340 340 338 338 337 336 335 335 336 336 337 337 338 338 336 331 335 335 335 336 335 335 334 332 332 332 328 327 323 319 313 317 314
309 311 312 312 314 314 313 312 313 313 313 314 315 314 315 316 315 314 315 316 317 317 317 319 317 317 318 319 320 322 324 324 324 324 324 325 326 327 328 329 327 325 327 329 332 333 333 333 333 333 335 337 339 340 341 339 338 338 337 337 335 325 323 325 329 338 339 338 336 336 335 334 334 333 331 332 332 331 332 330 324 320 319 317 314 310 313
309 310 311 312 313 312 312 313 313 312 312 314 314 314 314 315 314 315 316 316 317 317 317 319 319 318 317 319 321 323 323 324 324 324 323 324 325 326 327 327 328 329 329 331 332 333 333 333 333 334 337 338 338 339 339 339 339 337 336 336 336 336 330 327 335 334 337 337 337 335 334 333 333 333 333 332 330 330 330 329 325 321 318 318 316 315 313
309 307 307 308 309 311 311 312 311 312 312 312 314 316 317 318 318 318 318 319 319 321 322 322 321 320 320 321 322 322 322 323 323 323 322 323 324 325 326 327 327 328 329 330 332 334 334 332 333 336 337 337 337 338 338 338 338 337 337 337 336 336 334 329 329 335 336 336 335 334 333 332 331 332 331 330 330 330 330 327 325 323 321 317 315 314 312
310 310 310 311 311 310 310 310 312 313 314 316 317 318 319 319 319 319 319 320 320 320 321 322 323 323 323 323 322 322 322 321 319 319 320 321 322 323 325 326 327 328 328 330 331 332 333 334 335 335 336 336 336 337 337 338 338 338 338 338 337 335 335 335 333 335 334 333 333 333 333 333 332 331 332 330 329 329 328 327 325 324 321 318 315 315 309
316 316 316 315 315 316 316 314 313 314 315 316 317 319 320 320 319 318 320 320 320 320 322 323 324 324 323 322 321 320 319 317 317 318 319 320 321 323 325 325 327 328 328 328 330 331 333 335 335 335 336 335 335 335 335 336 337 338 338 338 337 336 336 336 336 335 334 334 335 335 334 332 330 330 330 330 330 329 328 327 324 323 322 320 316 316 315
317 315 315 315 316 316 317 317 317 318 318 318 318 319 320 320 320 320 320 319 321 321 322 322 322 322 320 319 318 317 316 316 318 318 319 320 322 324 324 324 325 325 326 326 328 331 332 332 334 333 333 333 333 335 336 336 336 336 337 337 336 335 335 334 335 335 335 335 335 335 334 332 331 331 332 332 332 331 328 326 323 320 319 318 318 317 317
316 315 316 316 317 317 317 319 320 320 319 319 319 319 320 321 321 321 321 321 321 321 321 319 318 317 316 316 315 316 316 317 318 319 320 322 322 322 322 322 323 323 324 322 325 329 329 330 333 332 331 331 332 334 334 334 335 334 334 334 334 334 333 334 334 334 334 335 334 334 332 333 334 333 332 333 332 330 328 326 324 322 319 320 321 320 319
313 313 314 317 318 318 318 319 320 320 320 320 321 321 321 319 319 318 319 320 321 320 319 318 317 317 317 317 316 315 316 318 319 320 321 321 320 319 319 319 319 320 320 321 326 327 327 327 328 330 331 331 331 332 332 334 333 332 333 332 332 332 331 331 331 331 332 334 332 334 333 333 334 333 332 332 331 329 328 327 325 325 322 323 323 323 323
310 311 312 313 314 315 315 315 317 317 317 316 316 316 318 318 319 318 318 318 319 320 318 317 317 317 317 316 316 317 317 319 320 320 320 320 320 318 317 318 319 320 322 325 326 326 327 327 327 326 326 327 329 329 331 331 331 329 329 330 330 329 329 329 329 329 330 332 332 331 332 331 331 332 332 332 330 328 326 326 325 323 322 322 322 321 323
308 308 309 309 309 310 311 312 314 315 317 318 317 316 318 317 316 316 315 315 316 318 316 316 316 316 316 316 316 316 317 319 319 320 319 319 319 318 318 319 321 323 324 325 324 324 325 326 325 324 324 324 325 326 328 329 329 328 328 327 327 326 326 327 327 327 328 329 330 329 329 329 329 329 329 329 329 328 327 324 323 321 319 321 323 321 321
307 308 308 308 309 309 309 309 309 311 312 313 313 313 314 313 314 313 313 314 315 316 316 317 316 316 315 315 314 315 315 316 316 317 318 318 316 316 314 314 320 322 322 323 323 323 323 323 322 321 322 322 322 323 323 324 325 326 327 326 326 325 325 325 325 325 325 325 326 326 326 326 326 325 324 325 327 328 328 328 326 323 323 323 323 321 319
306 307 308 308 308 308 309 309 309 309 309 310 312 312 312 312 312 311 312 313 314 315 316 317 318 315 315 314 314 314 314 314 314 314 315 315 314 314 313 315 319 321 323 322 322 321 320 319 320 321 320 320 320 322 322 320 319 320 320 321 321 322 323 324 324 325 325 325 325 325 325 326 326 326 325 325 323 323 324 325 325 324 323 322 320 321 319
305 305 305 306 307 308 308 308 307 307 308 309 310 311 311 312 311 311 312 311 311 312 312 311 312 312 312 311 312 312 313 314 314 313 313 314 316 316 315 316 318 320 322 320 319 319 318 319 318 318 320 319 319 320 319 316 316 317 317 317 317 317 317 317 319 321 322 323 323 323 324 323 323 324 323 323 321 322 322 321 321 321 322 323 323 322 321
307 306 306 306 306 307 308 307 307 307 306 307 309 310 310 310 310 310 310 310 310 311 308 308 308 308 309 309 310 310 312 313 313 313 311 310 311 314 317 316 317 319 320 318 316 315 315 316 317 317 319 319 318 318 316 315 314 314 314 314 314 314 314 314 315 316 315 316 318 320 321 320 320 320 320 320 320 321 321 321 321 319 318 318 320 322 322
306 307 307 307 307 307 306 306 306 306 307 308 307 307 307 307 308 309 309 308 308 308 308 307 307 307 307 307 308 308 309 310 312 312 310 308 308 309 314 316 315 316 316 316 314 314 314 314 315 317 317 316 316 316 314 314 313 313 313 312 312 312 312 311 312 313 313 314 314 314 315 316 317 318 318 318 316 317 318 319 319 319 319 319 319 319 319
304 305 306 309 307 308 308 308 308 307 306 305 305 305 306 306 305 306 306 306 306 306 306 307 307 308 308 308 307 307 307 307 308 310 311 310 309 310 313 315 314 315 315 315 313 312 312 315 314 314 314 314 314 312 312 312 312 311 311 311 311 311 310 310 310 310 310 311 311 312 312 312 311 311 312 313 314 314 314 315 316 318 318 317 317 316 318
304 304 305 306 307 308 309 309 309 307 306 304 302 302 303 304 304 304 305 305 305 305 306 306 306 306 307 307 308 306 304 304 305 307 309 310 311 311 312 313 314 314 312 311 311 311 311 311 312 312 312 312 312 309 309 309 310 310 310 310 310 309 310 309 309 309 308 308 309 310 310 311 310 310 309 309 309 310 310 310 310 311 313 315 316 317 316
304 303 304 305 305 306 307 307 306 304 304 303 303 303 303 304 303 303 304 304 304 304 303 304 305 306 306 306 306 307 307 306 302 303 307 308 309 310 310 309 310 311 311 311 310 311 312 311 311 311 311 310 308 308 308 307 307 308 308 308 309 308 308 308 308 308 307 307 307 307 307 307 308 309 308 307 307 307 307 307 306 307 308 309 313 315 315
303 303 304 304 304 305 304 304 304 304 304 305 305 304 305 304 304 304 303 303 303 302 302 302 303 304 305 306 306 305 306 307 306 303 306 307 307 307 307 308 309 309 308 307 307 308 310 309 309 309 309 309 307 307 307 307 307 308 308 308 308 308 308 307 308 308 307 306 306 306 305 305 305 306 306 306 306 306 305 305 305 304 304 305 306 307 308
303 303 302 302 302 302 302 302 302 303 304 305 304 305 305 304 302 302 304 303 303 303 302 302 302 303 304 304 304 305 305 305 306 306 306 306 305 306 306 306 307 307 307 306 306 306 309 309 309 309 309 307 307 307 307 307 307 307 307 308 308 308 307 307 306 305 307 307 306 306 305 305 305 304 304 304 304 304 304 304 304 302 302 303 303 303 304
303 302 302 303 303 303 303 303 303 304 304 304 304 305 304 303 302 303 303 303 303 302 301 301 302 302 303 303 304 304 304 304 305 306 305 305 305 305 305 304 304 305 305 304 304 304 305 306 307 307 307 307 306 306 306 306 306 306 307 307 307 307 307 307 306 306 306 306 306 306 306 306 305 305 304 304 303 303 303 303 303 303 302 301 301 302 303
303 303 304 304 303 303 303 303 303 303 304 304 303 303 302 302 301 301 301 303 301 300 301 301 300 302 302 302 303 303 304 304 304 304 305 304 303 302 303 304 302 302 302 303 303 303 304 305 306 307 307 305 306 305 306 306 305 305 305 306 306 305 305 305 305 304 304 304 304 304 304 305 305 304 304 303 303 303 302 302 302 302 302 303 303 302 301
Wind_Speed
6 7 8 5 3 5 6 8 9 11 6 7 15 17 10 14 15 16 6 10 11 11 11 9 7 7 7 8 8 7 6 3 3 4 5 7 8 5 6 8 8 10 11 12 13 12 13 15 16 18 17 18 15 14 17 17 18 19 17 17 17 18 17 18 18 18 17 16 16 17 17 16 16 17 17 17 17 16 16 17 16 18 18 17 16 15 15
6 6 7 4 2 2 6 8 11 12 12 12 8 11 14 14 14 12 14 9 14 12 12 12 13 7 8 8 5 5 8 6 3 5 5 7 7 7 8 9 11 11 13 12 12 13 14 16 16 17 15 16 18 19 19 18 18 19 16 16 17 18 19 19 16 15 15 14 15 16 16 16 16 16 17 17 17 17 16 17 16 15 16 16 16 16 15
5 6 5 3 4 7 9 9 10 12 12 12 12 11 12 13 15 17 17 9 10 6 5 9 7 3 3 3 9 11 8 6 5 5 6 4 5 6 8 8 9 9 10 11 10 11 13 15 17 17 17 17 17 21 19 20 19 19 18 15 17 19 20 18 15 14 14 15 13 15 16 16 16 17 18 16 16 16 16 16 17 15 15 16 16 15 16
5 2 6 9 11 11 11 11 11 11 12 13 12 11 9 10 9 9 14 15 10 1 6 9 7 4 6 8 9 9 8 7 3 5 7 8 8 7 6 5 5 7 10 11 12 14 16 17 16 15 16 15 17 19 19 20 20 19 18 18 19 18 17 12 13 14 15 15 16 16 16 17 17 17 17 17 16 16 16 17 16 15 16 15 15 15 14
6 5 6 10 14 10 10 14 12 13 16 15 11 12 10 12 8 12 13 8 0 7 8 10 10 11 11 12 10 9 11 8 6 8 8 8 8 8 4 5 6 7 9 11 13 14 14 15 16 19 17 15 17 18 18 19 16 18 19 20 18 17 14 15 15 15 14 15 16 15 17 16 15 15 17 17 17 16 17 16 14 16 17 16 16 15 15
4 8 9 9 6 9 8 4 2 2 4 6 12 16 15 12 11 10 4 8 8 9 8 11 12 14 12 12 13 9 9 7 7 9 9 9 8 6 5 6 8 8 7 8 10 13 14 15 18 17 16 17 16 16 14 11 14 15 15 16 16 16 14 14 15 14 14 15 16 16 15 15 15 16 17 18 18 16 15 15 15 16 18 19 16 16 17
5 5 8 7 10 10 4 1 3 4 7 2 7 10 9 12 13 14 16 12 8 9 10 12 13 15 16 6 3 3 3 4 6 7 7 6 6 7 5 6 7 7 8 9 10 11 14 14 12 12 14 16 14 13 13 15 16 15 15 16 14 14 13 14 13 13 15 15 15 14 15 15 15 16 17 17 17 16 15 16 17 19 18 19 19 20 20
3 3 4 5 6 8 15 3 2 5 4 5 8 9 4 6 7 6 10 10 13 10 9 10 11 7 3 1 0 1 3 4 5 6 7 5 5 7 5 6 7 7 8 9 10 11 9 10 13 15 16 16 15 16 16 15 14 15 13 13 14 12 12 13 14 14 14 14 14 14 15 15 16 17 17 17 17 15 14 15 16 16 15 16 19 20 20
7 5 9 13 10 16 18 1 2 4 3 4 4 3 1 4 5 7 6 8 9 10 8 7 8 3 2 5 6 6 5 6 6 6 6 4 6 6 6 7 8 7 9 9 10 9 9 10 12 15 14 15 15 15 16 16 15 16 15 14 14 13 14 14 14 13 13 13 14 15 16 17 18 18 18 17 15 13 14 15 15 16 19 20 18 17 20
8 9 9 10 8 12 6 6 1 2 2 2 2 3 3 5 5 7 6 7 9 10 9 7 5 3 5 8 8 8 8 5 5 4 4 4 5 5 6 6 7 7 7 7 7 8 9 11 12 11 12 13 13 13 14 14 15 16 16 15 14 13 13 13 14 13 14 16 16 18 18 20 20 19 17 15 16 15 17 17 17 19 17 18 20 20 22
8 10 12 11 11 7 4 6 2 2 2 3 6 3 6 4 7 8 7 9 9 9 9 9 2 5 8 8 7 5 6 4 2 2 2 3 4 4 5 6 7 7 7 6 6 6 8 10 10 10 12 14 14 13 13 15 16 15 15 14 14 15 15 14 15 17 17 17 18 16 17 18 17 17 17 16 14 12 14 15 16 16 17 20 20 19 18
9 9 11 13 6 7 4 3 3 2 2 5 5 6 4 6 9 8 9 10 11 11 10 10 7 8 9 9 3 6 6 4 2 1 3 4 5 4 5 4 5 6 6 2 1 3 6 7 6 9 11 11 12 11 13 14 15 15 16 17 13 13 14 14 13 12 12 14 13 14 17 16 16 16 14 14 14 14 13 13 15 16 16 20 21 18 18
11 12 11 9 9 4 2 2 1 2 4 4 5 8 3 2 6 7 8 8 9 10 10 8 7 4 3 4 5 4 4 3 2 0 1 3 4 5 5 5 6 4 6 7 6 6 5 5 3 8 10 10 10 10 10 11 15 16 11 7 8 10 9 11 11 12 12 14 17 17 16 15 15 13 12 15 15 15 17 16 15 16 16 17 18 19 19
11 11 11 11 8 2 7 5 2 3 4 5 8 3 3 5 5 6 7 7 8 10 10 9 10 4 2 2 2 3 3 4 2 2 3 2 2 3 4 5 6 5 6 8 8 8 8 7 3 4 7 9 8 8 10 11 9 5 6 8 9 10 11 11 11 12 12 13 14 13 12 11 12 13 13 14 14 15 14 16 20 19 18 16 15 18 15
8 9 9 7 8 2 7 6 4 6 6 3 3 4 3 2 5 6 6 4 5 8 10 8 7 3 2 2 3 4 3 3 4 5 5 4 4 4 5 7 6 5 7 9 9 9 8 9 7 3 4 6 5 5 7 3 5 6 7 9 11 11 12 13 13 14 14 15 14 13 13 14 15 14 13 14 14 14 15 15 17 19 19 16 16 15 13
9 9 12 7 3 9 2 8 7 5 3 2 2 2 3 3 4 5 6 5 4 5 9 8 3 2 3 2 3 4 5 4 4 5 5 5 5 4 5 5 5 6 9 9 9 9 9 8 8 7 4 4 4 4 4 6 2 3 5 6 8 9 9 10 11 11 11 14 14 13 14 13 14 13 13 14 13 14 15 16 17 17 17 16 15 17 16
4 5 5 8 11 9 12 11 7 2 3 3 2 3 2 3 3 5 4 7 7 3 5 7 1 1 3 2 3 5 6 6 5 5 6 6 6 5 6 5 5 6 8 10 10 10 9 10 10 10 9 6 7 6 4 3 2 2 5 7 8 9 10 10 10 9 10 11 12 13 12 13 13 13 14 13 13 15 15 17 15 16 17 18 19 17 16
7 13 15 14 16 13 12 10 7 2 3 2 3 3 2 3 4 4 4 6 7 6 3 3 4 3 2 1 3 6 7 7 5 4 5 5 6 6 5 5 5 5 7 9 11 11 11 11 11 11 11 10 10 5 4 4 3 1 4 7 7 8 7 7 8 9 10 11 12 12 12 12 12 12 13 13 14 13 15 14 16 19 17 15 16 18 13
7 7 2 10 13 13 10 10 8 7 4 3 4 3 5 5 4 4 5 4 5 7 3 3 2 3 3 3 3 5 7 8 6 5 5 5 6 6 6 5 4 5 7 9 11 13 13 12 11 11 11 10 9 6 6 4 3 2 1 4 5 6 6 7 7 8 10 10 10 11 12 12 12 11 11 11 12 12 15 16 18 19 19 17 17 17 18
7 9 13 13 13 14 14 11 9 7 7 6 5 5 7 5 3 4 5 5 6 7 5 6 2 4 5 5 5 5 6 7 7 6 6 6 6 5 5 5 6 8 10 11 12 13 12 11 11 11 11 10 10 9 8 7 5 5 5 3 3 3 3 2 3 5 6 7 8 8 9 11 11 11 11 12 13 14 14 17 18 20 19 18 20 21 20
9 14 18 18 13 14 14 15 12 10 7 6 5 9 9 7 6 6 6 7 6 6 7 7 4 4 6 6 6 5 4 6 6 6 6 6 6 6 6 7 7 9 10 12 12 13 12 10 10 10 11 11 11 11 10 9 8 7 7 7 6 6 4 3 2 2 1 1 2 4 4 6 8 8 10 12 13 13 15 14 16 18 18 19 19 21 20
10 9 8 4 4 5 5 9 12 13 13 12 3 10 12 8 7 6 6 7 7 7 8 9 8 7 6 7 7 7 6 7 7 7 7 7 7 6 6 6 8 10 11 11 11 11 10 9 9 10 10 11 10 10 10 10 10 9 8 8 8 8 7 6 5 4 3 2 2 0 2 3 3 4 1 2 4 6 8 6 11 13 10 10 12 13 13
12 11 8 5 5 9 13 13 16 15 12 11 7 11 11 9 5 6 8 8 8 9 10 9 9 8 8 8 8 7 7 7 7 7 8 8 8 8 8 8 9 10 10 10 11 11 9 9 10 10 11 10 9 10 10 10 10 10 9 8 8 7 7 6 6 5 5 4 3 2 0 2 3 3 4 3 3 4 5 7 8 12 13 15 17 18 15
19 20 16 14 10 12 14 16 15 15 14 12 0 7 11 11 7 6 8 7 6 6 8 9 9 8 8 8 8 8 7 8 8 8 9 10 9 9 9 9 10 10 11 11 11 10 8 9 9 9 10 9 8 9 10 9 7 7 7 8 8 6 5 3 3 3 4 4 3 2 3 2 2 2 2 5 5 5 7 9 10 13 14 16 17 19 21
15 13 12 13 12 15 15 15 17 16 15 13 4 8 10 9 9 7 7 7 5 5 7 8 9 8 7 7 8 8 8 8 9 9 10 11 12 11 11 12 13 12 11 10 10 9 9 9 9 8 8 7 7 7 7 7 7 7 6 6 6 5 4 3 3 4 4 3 2 2 1 1 1 1 2 3 4 5 7 10 14 16 17 18 20 20 22
16 16 16 16 15 15 15 14 17 15 13 8 3 6 8 11 10 10 8 7 4 4 7 8 8 8 7 8 8 8 8 8 9 11 12 13 13 13 14 14 12 11 10 11 12 12 11 11 11 10 10 9 7 7 7 8 8 8 7 7 7 5 4 4 5 4 3 3 3 3 3 3 2 1 1 2 3 5 7 8 9 11 14 19 20 22 24
17 17 18 17 17 17 15 14 9 11 9 6 7 6 8 12 12 9 7 5 5 6 8 9 8 6 7 9 8 9 8 7 8 12 12 14 14 13 11 11 12 12 12 11 11 11 11 10 11 11 10 9 8 9 8 9 8 8 8 8 7 9 10 6 5 4 4 3 3 3 3 3 2 1 1 3 4 5 6 7 8 9 10 11 16 21 22
17 16 15 15 12 10 8 8 5 6 6 5 4 5 4 4 8 11 6 6 8 8 8 9 9 8 8 8 8 8 8 10 11 12 13 12 10 10 10 11 11 11 10 10 10 10 10 10 10 10 12 9 9 9 9 8 8 9 9 8 8 7 6 6 5 5 5 4 3 3 3 2 2 2 3 3 3 4 5 6 7 9 10 12 13 13 22
16 15 13 14 13 10 4 1 5 7 6 6 6 3 5 6 9 9 6 5 7 7 8 8 7 6 6 7 7 7 7 9 11 12 11 10 9 9 8 9 10 11 11 11 11 10 10 10 10 9 10 9 8 9 8 8 8 8 8 8 7 7 6 6 6 5 5 4 4 4 3 2 2 3 4 4 4 4 4 5 7 7 9 13 12 7 2
10 8 7 7 10 9 10 10 9 8 6 7 8 6 5 7 8 6 4 4 7 7 4 3 5 6 6 6 8 8 8 8 8 9 10 9 9 9 8 7 8 12 13 14 12 11 11 10 10 10 9 9 9 8 8 8 8 9 9 9 8 7 6 6 5 5 4 4 4 4 4 3 3 3 4 4 6 6 7 7 7 7 11 11 10 11 9
10 8 9 10 12 11 10 10 6 5 5 5 7 9 7 6 7 7 5 5 6 6 6 5 4 5 5 5 4 6 6 7 9 9 9 9 9 9 10 10 11 12 12 13 12 11 11 11 11 10 9 8 8 8 8 7 7 7 8 8 8 8 8 7 6 4 3 3 3 3 3 3 3 3 4 4 5 6 7 6 7 9 8 8 9 12 6
8 5 7 7 9 11 10 7 7 7 7 6 7 10 9 9 9 8 7 7 7 7 7 6 4 4 3 2 2 5 6 8 8 7 6 6 8 9 11 12 13 13 12 10 11 12 11 12 13 12 10 10 9 9 8 7 6 6 7 7 7 7 6 6 4 5 4 4 3 4 4 4 3 3 4 5 6 6 7 6 7 9 7 4 6 10 11
6 5 6 9 9 10 9 9 9 9 9 10 7 7 7 3 4 5 5 6 7 6 6 6 5 4 3 2 4 5 7 6 7 8 8 8 8 9 9 10 12 14 13 11 11 11 12 12 11 11 11 11 10 9 9 8 7 6 6 6 6 6 6 6 4 3 3 3 3 4 4 4 3 3 5 5 5 7 6 6 6 6 7 6 9 14 16
8 8 10 13 13 14 14 10 8 8 7 5 6 6 6 6 6 6 6 5 7 7 7 8 9 8 7 7 7 7 7 7 8 7 8 8 8 8 7 8 8 10 12 12 12 11 10 11 10 10 11 11 11 10 9 8 7 6 6 6 6 6 5 5 3 4 4 4 4 4 4 4 3 3 3 4 6 6 6 7 6 6 6 6 9 12 15
7 8 10 10 9 9 9 10 10 9 8 7 6 5 6 7 6 6 6 8 9 9 9 9 9 9 10 10 11 9 9 9 7 7 7 7 6 6 6 7 8 9 11 14 12 11 11 11 11 10 10 11 12 12 10 8 7 6 7 6 6 5 5 4 4 3 4 4 3 3 3 3 4 3 4 4 5 5 6 6 8 8 7 6 8 10 10
10 10 9 9 8 9 10 9 9 9 8 7 6 6 7 7 9 9 9 9 9 10 10 10 10 10 9 9 9 10 10 9 8 8 7 7 6 7 10 11 10 10 11 14 14 12 12 13 17 16 10 10 11 12 12 10 8 7 6 6 7 6 6 5 5 5 5 4 4 4 4 4 4 4 3 4 3 4 5 5 6 7 7 7 6 6 7
11 9 10 9 8 8 8 5 6 8 7 8 8 8 9 8 8 9 9 9 8 8 8 9 10 10 10 9 9 9 8 8 8 7 7 9 9 11 12 12 13 12 11 12 11 10 10 11 16 17 12 10 11 11 13 16 7 7 7 8 7 7 7 7 6 6 6 6 6 5 4 3 4 4 3 2 3 3 4 5 5 4 5 6 6 4 5
13 13 11 9 9 9 8 7 6 8 10 10 8 8 9 9 7 8 8 8 9 8 10 11 12 11 9 9 9 9 9 8 8 9 12 13 12 15 15 15 13 12 12 11 9 9 10 12 15 12 10 10 9 10 13 18 14 9 9 9 8 8 8 8 8 7 7 6 5 5 5 5 4 3 2 3 3 3 4 4 5 5 5 4 4 5 5
18 16 15 14 11 10 11 9 9 10 10 11 11 10 10 10 9 10 9 9 8 8 11 12 11 12 10 10 10 10 11 9 10 11 12 12 13 16 15 14 13 12 10 8 9 11 12 13 11 11 10 10 11 10 12 16 16 11 11 10 10 9 9 8 8 6 6 6 6 6 5 5 5 5 4 4 3 3 3 4 5 5 4 4 4 3 4
17 17 17 17 16 14 12 10 11 11 10 10 10 10 9 10 10 11 11 12 10 8 9 11 10 9 11 12 12 12 11 11 11 12 12 11 12 12 12 13 14 11 11 12 12 12 18 21 15 11 10 11 11 9 9 13 13 11 11 11 11 11 10 9 9 8 8 7 7 7 7 7 5 5 5 5 4 4 2 3 4 5 5 4 3 3 3
19 18 18 18 15 13 14 16 16 15 14 13 14 12 12 13 11 12 13 14 12 12 11 9 10 12 12 12 12 11 11 12 12 13 11 11 12 12 13 13 11 11 12 12 12 14 17 17 14 12 11 11 11 12 9 12 10 9 10 10 10 10 10 11 11 11 11 11 10 10 9 8 7 6 5 4 3 1 1 0 0 2 4 6 8 5 4
18 18 17 17 14 14 16 17 17 16 14 14 14 15 15 14 14 14 13 13 11 10 10 12 14 12 10 11 11 12 12 13 13 15 17 16 14 12 13 12 11 11 17 17 17 16 14 15 14 14 12 11 11 17 17 11 11 10 10 10 10 9 9 10 10 10 10 10 9 9 9 9 8 7 6 4 3 3 3 2 1 0 1 1 1 1 4
16 15 13 12 11 12 15 15 14 15 16 16 15 14 14 14 13 14 13 12 12 11 12 11 12 13 12 9 9 9 9 10 13 14 15 17 17 15 13 10 10 13 20 15 14 13 13 12 12 12 17 15 13 18 18 12 11 11 11 10 10 10 9 9 8 8 8 8 9 10 9 8 8 8 8 7 5 3 2 2 2 1 1 2 3 3 3
16 15 14 14 14 14 13 14 16 16 15 14 13 14 14 13 12 12 12 11 11 11 11 11 11 11 10 10 10 10 9 9 10 11 12 11 12 14 13 11 10 14 19 13 13 12 12 12 12 16 21 22 21 19 13 12 12 11 11 11 11 10 10 10 9 9 9 9 8 8 8 8 7 6 6 7 7 7 6 3 2 2 1 1 1 2 4
15 13 15 16 16 15 14 13 13 13 12 12 14 14 13 14 13 12 11 11 12 11 10 9 10 10 10 11 10 10 10 10 10 9 11 11 12 11 11 12 12 12 14 15 12 13 12 12 17 23 20 20 20 19 13 12 11 11 11 11 11 11 11 11 11 10 11 10 10 9 8 8 8 9 9 8 8 8 8 7 5 4 2 2 2 2 2
15 14 14 15 15 12 10 11 10 11 12 13 14 14 12 11 11 10 10 11 11 10 10 10 11 11 10 11 11 11 11 11 12 12 11 10 10 8 10 12 11 12 18 18 12 12 12 20 23 21 22 21 19 14 12 12 11 11 12 11 11 11 11 10 11 11 11 11 11 10 10 9 9 8 8 8 8 8 7 8 7 6 6 5 4 3 3
14 14 13 12 10 10 10 10 12 14 14 14 13 11 11 11 10 10 10 11 11 11 11 11 12 12 11 10 7 7 9 9 10 10 10 9 9 10 11 15 15 18 15 13 12 12 12 14 17 21 20 21 19 13 12 12 12 11 12 12 11 11 11 11 11 10 10 10 10 10 11 10 9 8 8 9 9 7 7 8 7 7 7 7 6 6 5
12 12 11 11 11 9 9 10 13 13 13 11 10 9 9 9 10 10 10 10 11 11 12 11 11 12 12 12 12 11 9 8 11 10 9 8 8 9 10 10 11 13 14 14 16 17 22 21 20 20 20 18 13 12 13 12 12 12 12 12 12 11 11 11 11 10 10 10 11 11 11 11 10 10 10 9 8 8 8 8 9 8 9 9 8 7 8
12 11 11 12 12 13 12 11 11 11 10 9 9 8 8 8 9 9 10 9 10 10 10 11 11 11 11 12 12 11 11 11 10 8 7 8 8 8 9 11 15 15 10 9 10 10 16 19 19 18 18 15 11 11 11 11 12 12 12 12 11 11 11 11 11 10 10 11 11 10 10 11 10 10 10 10 9 9 9 9 10 9 8 8 8 9 9
11 11 12 11 11 12 11 10 10 9 8 8 8 7 7 7 9 9 7 8 8 8 8 9 9 9 9 9 10 10 10 10 10 9 8 9 10 9 9 10 10 14 14 9 9 9 12 17 17 17 13 11 11 11 10 11 11 11 11 12 12 11 12 12 12 14 12 11 11 11 11 10 10 10 10 10 10 10 9 8 8 11 15 11 8 8 8
10 10 9 9 10 10 11 11 9 9 9 9 8 8 8 9 9 8 8 7 6 8 8 9 9 10 9 9 9 9 9 9 9 10 8 8 9 11 11 9 10 10 10 10 9 9 9 10 11 11 11 11 11 11 11 11 10 11 11 10 12 11 11 12 11 12 12 11 10 11 11 11 11 11 10 10 10 10 10 10 10 9 8 8 8 8 9
11 9 8 8 9 9 10 10 10 10 9 9 8 8 8 8 8 8 9 11 9 8 8 8 10 9 9 8 9 8 8 9 8 8 9 9 8 8 9 11 9 10 9 9 9 10 9 10 11 14 13 10 10 10 11 13 11 11 11 11 10 10 11 11 11 11 12 12 11 11 11 11 10 11 11 11 10 11 11 11 11 10 10 10 9 9 8
Wind_Direction
336 307 301 317 288 261 262 266 269 269 275 262 236 231 199 175 215 235 181 183 223 246 229 220 226 229 232 236 240 260 317 321 209 191 217 228 237 237 227 231 218 210 210 210 206 201 198 197 193 196 195 197 196 191 199 198 197 199 190 184 186 186 189 194 196 194 192 192 192 190 189 189 191 195 198 199 200 200 199 202 205 207 207 206 203 203 204
318 315 313 326 300 301 281 266 269 268 267 263 258 255 245 224 236 242 243 185 220 225 230 225 235 236 253 284 353 311 270 253 190 215 220 233 235 226 226 228 224 213 213 211 204 200 197 197 196 197 196 197 198 197 198 194 196 200 190 188 185 194 196 198 191 185 183 185 189 184 184 189 189 190 195 199 201 201 199 201 204 204 207 207 207 204 202
313 317 318 290 318 312 289 281 264 260 258 260 249 247 248 253 252 252 258 246 237 223 264 250 244 280 3 296 261 256 254 252 248 249 247 234 237 233 226 226 230 228 221 219 205 201 201 199 197 198 198 198 197 201 200 198 197 196 192 189 190 197 205 201 187 184 185 193 189 188 190 191 193 193 197 200 202 203 203 201 204 202 203 206 208 207 205
300 345 338 326 324 310 279 267 261 250 239 245 240 235 229 231 235 242 253 254 251 265 259 263 256 221 231 244 243 248 252 251 235 274 274 266 264 261 254 258 241 232 227 220 211 208 206 204 201 199 199 196 196 202 200 200 200 193 195 194 196 200 205 183 176 185 192 190 191 193 189 192 191 193 197 201 203 203 202 201 201 203 203 204 207 209 209
276 305 336 333 319 306 275 246 242 244 250 251 255 256 235 232 231 228 233 251 284 242 219 245 250 245 232 231 241 255 257 241 235 237 247 256 255 249 239 257 258 244 237 227 219 219 213 205 202 203 196 195 198 201 199 199 192 190 193 195 196 201 196 186 189 189 188 188 191 190 191 190 189 191 195 200 203 202 203 202 199 203 207 204 207 208 210
291 314 321 317 294 253 240 47 320 306 274 286 255 250 243 231 217 255 279 260 235 227 212 226 240 239 242 238 240 242 251 252 228 240 241 245 256 266 255 247 254 258 245 243 235 224 218 212 207 202 195 199 201 201 200 182 187 194 194 198 195 197 190 186 187 187 187 189 192 191 185 186 188 192 196 203 205 205 205 202 203 207 209 210 209 211 213
276 296 304 282 248 238 44 286 84 271 243 270 301 306 288 262 243 235 245 244 237 228 218 219 229 237 246 269 330 255 231 228 237 242 247 248 258 268 262 255 256 253 253 250 244 236 230 224 212 199 200 205 199 192 186 186 192 193 198 200 197 193 189 191 187 187 189 191 190 186 184 186 189 195 199 203 205 204 203 204 207 212 209 212 216 218 218
255 289 230 243 210 350 307 357 100 23 191 280 297 261 184 44 19 338 262 251 246 241 229 231 239 259 3 336 211 262 250 235 240 233 242 248 254 261 265 270 267 262 260 252 249 243 235 215 207 201 203 199 194 196 193 194 194 198 199 201 203 193 187 186 188 188 187 188 187 186 185 189 193 198 201 202 202 200 202 208 211 212 206 212 216 218 219
234 225 240 248 329 321 297 323 57 32 29 344 3 293 306 23 35 10 340 315 299 295 288 272 281 342 273 269 243 194 223 228 243 250 261 270 269 275 275 269 272 270 266 262 260 257 238 223 211 207 204 195 195 192 189 192 187 193 194 195 198 191 191 190 188 182 179 180 186 188 190 192 197 199 200 201 199 194 200 204 204 208 215 213 216 216 219
207 237 256 265 250 248 241 119 70 207 230 224 208 206 257 128 17 8 341 322 316 312 312 310 306 247 253 254 256 200 196 205 239 253 263 268 268 279 290 291 284 275 269 265 247 238 234 220 216 202 194 188 185 185 188 186 186 193 193 195 192 186 187 179 176 176 182 188 186 189 191 194 197 199 199 198 197 193 202 203 207 213 213 217 218 219 220
201 214 231 234 237 229 90 147 331 335 187 216 182 195 251 106 1 359 346 323 318 313 312 315 305 212 227 245 247 150 159 169 212 253 287 293 300 307 312 313 309 307 303 290 281 234 226 220 207 190 190 187 185 185 186 192 191 191 195 195 186 186 182 177 180 189 191 194 197 192 194 199 199 199 198 197 198 194 204 208 209 208 210 217 218 217 217
235 227 223 237 224 226 139 182 325 322 148 176 199 277 274 36 349 340 340 329 321 317 310 300 268 226 225 231 286 101 130 128 96 282 318 320 329 337 336 339 325 318 322 318 144 214 219 228 202 187 189 188 190 186 187 192 192 196 200 200 189 182 185 188 189 190 188 190 192 195 200 199 199 201 197 192 193 193 202 209 213 213 207 213 212 212 215
229 233 246 261 258 229 251 229 289 18 158 197 228 242 53 343 340 330 328 325 324 317 309 292 257 252 326 358 10 36 58 104 101 42 320 328 333 345 353 8 343 19 40 48 48 35 11 344 250 197 190 184 188 189 184 191 203 207 198 161 168 182 188 192 190 189 189 190 194 201 201 199 198 198 195 198 200 200 206 207 211 218 215 217 218 217 215
220 225 239 245 273 291 127 150 115 114 170 229 247 47 218 289 326 342 314 321 330 331 308 286 265 299 342 10 55 65 48 20 10 353 351 357 31 49 42 23 22 44 56 49 43 36 21 14 14 202 185 182 183 179 188 205 209 185 148 159 172 178 182 187 186 188 191 196 199 202 202 197 198 203 205 204 204 204 208 214 216 219 219 219 221 223 216
224 235 246 253 255 173 191 127 201 173 241 306 355 314 322 321 332 330 314 312 338 334 317 294 263 219 187 139 73 61 52 38 3 352 353 352 2 10 29 55 47 54 73 63 51 37 23 22 15 20 190 182 174 172 191 198 201 184 164 172 175 179 180 184 187 189 193 192 193 199 200 200 204 207 202 202 204 204 206 210 216 221 223 221 223 221 217
215 211 219 221 239 354 321 198 230 161 250 354 239 286 303 6 335 345 325 321 331 339 323 297 222 197 160 116 101 82 67 45 23 1 349 349 353 8 31 44 56 75 87 83 71 53 43 36 30 27 53 118 100 130 85 19 343 202 178 172 173 182 186 192 193 195 194 198 201 203 201 195 199 200 200 200 201 208 206 211 219 219 221 219 221 225 225
282 267 281 307 319 300 307 301 311 127 156 195 210 231 271 320 353 336 314 317 319 337 345 326 349 42 35 51 62 84 67 55 35 11 3 354 355 6 17 31 49 67 84 90 86 73 58 52 48 49 41 68 91 75 28 350 10 187 189 184 182 192 196 197 195 196 194 200 201 202 200 195 199 203 204 198 201 210 210 216 218 224 225 222 221 221 218
292 282 261 275 281 290 300 294 301 255 171 191 201 191 138 60 22 342 329 327 325 318 63 24 19 24 25 25 77 79 74 63 52 38 28 13 9 14 25 33 44 68 78 82 82 78 65 57 56 52 53 55 60 45 27 20 357 331 193 190 194 199 198 194 194 195 197 201 203 204 204 205 207 206 207 204 208 207 211 210 214 222 224 217 218 219 210
317 287 196 218 263 281 275 279 284 285 260 210 184 144 85 59 37 14 8 344 343 338 7 82 67 43 30 24 27 69 81 76 68 62 55 46 29 25 31 34 48 67 73 71 68 66 60 49 50 50 53 53 51 49 43 35 35 12 205 191 189 193 197 200 196 197 201 206 208 211 208 211 212 210 207 209 209 209 213 215 219 221 222 219 222 224 223
238 257 283 291 294 298 295 278 267 262 251 221 197 119 86 74 54 44 27 25 34 4 5 358 -0 55 47 37 28 49 77 88 83 71 60 56 53 46 39 47 59 69 71 70 67 66 64 57 52 46 44 42 39 36 35 32 38 60 78 94 160 164 168 156 187 202 212 214 214 213 207 205 210 210 210 211 213 212 210 215 222 224 226 226 226 227 228
281 286 280 275 282 276 268 265 263 266 244 212 177 100 83 60 46 30 55 50 49 39 11 354 10 53 50 34 8 7 28 63 72 69 71 62 52 44 44 46 53 62 66 67 66 66 66 65 62 60 56 49 41 36 34 33 34 49 60 70 83 83 83 105 101 82 110 118 212 233 239 227 230 234 227 225 225 227 223 215 215 216 220 228 227 230 227
267 250 263 14 280 284 296 276 263 251 244 251 198 100 81 51 39 27 37 46 43 42 34 20 12 20 31 37 21 14 11 21 41 52 51 49 43 33 26 33 42 54 60 65 67 67 66 62 61 58 56 53 47 42 37 34 40 51 57 61 62 61 59 63 63 74 78 91 72 132 234 238 251 248 322 325 268 271 264 319 338 322 327 260 253 233 220
268 260 267 301 320 300 281 282 286 265 264 260 227 114 111 97 56 46 42 33 25 33 32 28 22 15 18 17 21 28 13 11 29 45 48 46 42 37 31 37 46 53 57 63 69 70 69 66 59 56 56 53 53 51 49 45 43 44 48 60 64 66 65 66 68 68 68 66 66 70 22 270 269 281 293 296 335 322 282 283 289 301 292 279 276 277 252
268 274 281 281 278 269 277 282 288 282 270 274 319 101 112 113 107 81 73 45 31 29 38 33 26 17 19 9 14 23 7 10 17 35 44 47 41 35 34 33 35 43 48 51 52 56 61 62 61 60 64 64 63 57 49 45 47 57 64 70 70 68 69 86 114 118 128 138 150 156 172 173 174 201 263 277 284 270 261 254 253 247 254 264 264 251 247
267 280 280 273 264 268 272 280 284 274 258 267 222 134 128 126 114 99 86 77 43 45 55 41 27 16 14 17 22 22 8 8 14 29 47 50 45 40 34 31 29 31 36 42 46 48 49 50 55 56 58 54 51 50 42 41 46 59 67 75 81 79 71 62 57 40 36 40 40 46 87 145 175 190 235 243 266 289 284 259 245 245 245 240 236 241 238
261 264 262 263 262 261 266 269 261 246 242 239 180 149 128 112 110 102 94 84 75 69 69 62 42 18 18 22 21 13 18 16 16 37 46 45 44 39 33 31 30 33 37 42 45 46 47 47 49 50 51 48 38 34 38 45 56 64 67 70 69 72 82 86 86 84 76 67 59 46 36 25 23 9 323 282 269 268 271 271 273 259 250 247 248 239 228
251 247 252 260 258 257 249 239 239 227 221 201 183 147 132 123 115 103 100 101 75 48 59 62 58 37 32 26 21 23 14 1 31 46 50 49 45 38 34 34 35 35 34 35 37 35 39 46 49 47 43 36 34 37 42 48 56 61 64 65 71 70 74 84 91 90 84 81 83 94 89 92 82 50 318 290 276 283 284 298 296 295 292 262 235 231 236
256 251 238 239 245 242 224 208 243 242 203 156 148 132 114 138 126 113 113 92 72 54 46 42 38 32 31 21 21 19 13 23 42 47 47 45 45 44 46 48 47 45 42 41 39 40 42 40 40 44 42 32 34 36 40 45 51 56 56 60 63 67 66 69 71 69 71 65 71 66 55 44 12 304 298 298 309 306 303 289 290 291 287 270 269 242 228
261 255 234 226 232 247 177 144 194 191 183 153 136 129 147 123 94 93 96 108 94 75 61 42 29 41 33 24 21 24 19 32 40 35 39 39 39 43 49 56 58 57 54 49 45 42 41 39 35 33 30 25 33 38 42 46 52 56 59 60 62 62 60 58 58 64 66 68 64 59 55 39 11 349 329 328 328 317 296 301 284 276 277 290 297 291 305
249 235 240 241 228 197 170 182 178 176 170 156 145 125 111 114 107 109 116 106 93 88 78 68 47 38 29 27 22 18 27 30 31 39 40 38 37 38 44 56 68 58 53 49 45 43 44 42 37 33 22 16 27 36 42 46 51 56 60 59 59 58 64 61 65 60 64 64 61 55 48 34 26 -0 344 345 350 346 341 330 335 330 326 333 321 291 250
268 248 237 227 195 186 175 153 155 157 159 163 147 127 125 108 107 119 133 119 105 113 109 84 48 52 37 38 21 30 33 38 45 45 43 41 38 37 41 43 53 49 46 46 45 46 47 44 40 34 24 23 24 31 40 46 47 50 53 57 64 65 52 44 45 50 60 65 61 51 48 33 25 8 357 356 353 357 3 13 24 26 8 356 5 6 323
266 252 216 176 172 170 168 151 141 156 169 169 159 142 145 149 143 142 142 144 138 139 131 119 96 78 69 60 62 67 58 51 45 38 30 29 37 43 48 52 55 56 51 41 40 45 46 47 44 36 31 30 29 31 37 43 47 52 54 56 54 56 46 30 51 26 21 37 39 36 26 17 17 5 15 17 8 4 8 20 58 68 62 36 48 45 27
202 157 163 169 173 170 165 165 151 159 166 171 173 153 134 121 120 131 134 129 128 128 130 126 118 115 117 95 76 73 71 61 46 40 31 25 23 23 34 45 51 52 49 45 38 37 40 42 42 40 40 38 34 32 34 39 43 46 52 56 62 61 58 49 20 31 29 15 38 37 38 34 22 17 30 27 17 16 18 15 33 69 66 31 32 46 42
207 191 169 168 168 173 166 160 157 145 152 155 151 152 143 146 143 142 136 128 124 121 123 127 129 125 120 106 92 85 84 73 54 39 31 27 22 21 29 43 49 54 53 49 45 40 35 37 41 43 43 43 42 38 32 32 36 39 45 51 56 56 52 53 46 37 37 28 32 46 60 65 58 51 43 43 34 31 22 16 16 24 60 56 48 66 53
170 159 159 159 161 155 144 145 152 151 151 150 153 155 151 143 136 137 139 131 128 127 127 123 119 114 105 99 91 88 77 71 64 53 44 40 37 30 31 42 48 52 50 49 43 42 37 33 32 41 42 41 39 39 34 30 32 37 37 44 49 51 48 44 38 39 34 34 24 41 58 77 84 81 74 62 64 57 47 33 19 12 6 69 78 78 86
123 123 117 113 120 130 141 141 144 148 145 144 145 141 141 139 139 142 133 122 126 123 119 113 109 98 86 81 81 78 77 73 71 65 60 45 38 39 42 40 39 41 46 50 41 38 38 37 35 39 43 38 35 30 26 22 31 33 40 41 47 46 46 42 37 37 23 17 23 30 43 75 94 89 74 91 89 86 86 65 43 32 23 26 44 79 103
74 95 115 108 112 119 126 119 125 134 128 132 133 137 131 127 127 128 126 124 115 109 106 102 93 89 87 82 81 79 74 72 70 65 55 55 52 50 47 46 40 41 40 45 24 16 24 28 32 40 43 41 36 29 22 20 24 32 40 45 47 44 39 35 32 31 32 28 19 25 35 59 66 69 58 55 80 77 83 100 96 91 56 41 35 47 73
58 53 59 87 98 99 97 94 102 119 119 114 104 99 100 90 80 75 77 89 91 87 89 89 90 90 85 82 76 74 74 73 68 62 62 59 55 60 53 48 43 42 43 37 16 20 24 24 27 31 34 34 27 27 20 19 18 30 40 39 43 44 43 41 36 30 27 26 26 23 18 20 21 42 55 54 51 66 86 87 99 121 111 93 71 61 55
52 47 49 52 54 65 74 68 70 71 75 87 84 79 85 92 97 96 91 82 79 86 96 96 94 88 78 74 71 65 62 59 57 57 60 61 60 62 59 50 47 42 40 29 30 31 27 27 31 32 29 21 21 27 22 26 34 40 39 40 39 39 38 40 37 30 22 20 26 22 28 29 27 13 13 25 49 91 94 103 113 127 133 141 136 118 128
54 52 50 49 46 46 52 51 54 58 57 57 69 75 73 72 68 73 76 73 66 67 75 80 78 78 80 76 72 68 61 58 54 54 55 54 56 60 57 45 34 29 28 35 38 36 32 30 31 32 28 24 21 19 24 30 41 44 44 43 43 41 39 37 35 28 21 16 18 20 28 29 25 22 28 25 352 7 13 120 144 143 147 163 170 127 111
45 47 50 49 44 43 54 59 57 54 55 55 54 53 60 65 61 65 70 74 69 64 63 65 74 74 75 75 75 72 68 60 56 50 48 56 56 54 54 49 27 26 28 38 40 40 37 35 31 28 28 27 28 18 21 24 29 38 40 40 42 40 39 36 35 34 29 27 25 26 24 23 26 26 32 38 14 349 211 159 284 133 139 167 175 158 142
45 43 50 51 42 42 50 53 53 50 48 50 53 54 55 57 58 58 56 58 61 60 65 67 71 72 66 69 74 72 69 66 65 64 62 60 56 55 55 45 21 25 28 36 38 39 37 37 34 32 30 31 32 27 32 31 30 29 32 31 31 32 34 33 33 31 29 28 27 24 22 21 21 18 20 33 37 25 16 10 18 91 132 66 46 333 91
45 48 46 47 42 44 56 57 55 53 51 45 46 47 47 48 53 56 57 54 50 56 62 62 64 69 68 60 56 59 62 65 65 65 65 63 59 55 55 45 31 30 35 42 40 43 39 36 36 37 39 42 38 38 40 37 32 30 29 29 29 30 31 32 28 26 26 24 27 30 27 18 12 10 6 358 359 20 65 62 69 86 259 231 184 123 75
40 42 43 44 42 42 47 54 58 52 48 46 46 50 52 52 50 55 56 55 51 49 55 59 57 56 52 54 58 56 49 49 60 65 69 64 54 45 39 42 41 40 43 48 46 44 40 37 36 37 41 42 42 43 45 41 39 37 35 33 30 29 28 29 30 31 30 26 24 25 23 24 25 20 11 3 350 349 5 29 56 52 56 349 68 116 136
32 34 40 46 47 46 47 50 55 63 62 58 55 51 51 55 52 43 45 52 53 50 45 51 55 57 57 57 59 58 56 52 49 51 61 61 58 46 34 44 46 46 46 52 56 50 44 39 36 38 40 41 43 44 44 40 39 38 38 37 36 33 31 29 26 27 29 31 30 26 23 21 26 27 25 20 17 6 358 359 13 18 24 54 66 93 108
34 30 31 40 41 42 45 55 63 68 65 60 57 48 44 48 50 47 43 48 50 48 47 46 45 47 56 64 63 61 62 56 52 52 55 58 61 55 45 49 51 50 49 50 50 49 46 40 39 38 39 40 43 46 43 41 40 40 39 38 36 35 33 31 30 29 27 26 27 28 28 29 27 24 23 22 17 13 7 6 9 16 23 16 25 30 51
40 37 33 34 37 35 40 50 54 54 52 53 54 52 43 43 50 54 50 49 51 47 46 50 52 47 41 39 45 57 65 67 57 44 49 53 57 55 48 49 51 52 53 51 48 44 40 40 40 39 40 41 43 44 42 40 40 40 40 39 37 36 35 33 33 33 32 29 23 24 26 29 31 29 27 28 24 16 12 15 15 10 11 18 22 20 31
39 42 39 36 36 30 31 36 47 49 50 53 58 59 56 52 54 54 52 53 55 55 52 50 50 48 45 45 44 43 41 60 74 52 34 47 50 51 48 45 42 46 51 54 51 43 38 36 36 38 39 41 43 42 41 40 39 38 39 39 38 36 35 33 32 33 33 32 30 30 29 27 26 28 27 29 28 25 18 23 22 13 19 22 18 15 26
33 36 35 34 31 30 34 39 44 48 46 45 52 52 45 55 63 57 50 50 54 55 54 50 49 49 49 48 50 49 47 44 59 66 39 42 46 50 48 43 40 40 45 46 45 43 35 34 34 35 38 41 41 40 40 39 38 37 37 36 38 36 33 34 30 28 33 34 35 35 33 32 29 26 25 25 27 29 29 29 25 21 21 21 22 19 22
31 31 32 31 31 29 27 34 38 37 39 42 44 41 41 51 59 49 46 51 57 64 62 53 48 46 48 49 49 49 46 50 52 54 53 50 50 49 45 45 44 44 42 41 39 37 34 33 33 34 36 40 39 37 36 36 38 36 35 34 33 36 31 27 33 32 31 33 34 34 35 34 32 29 30 31 28 26 27 29 35 32 30 32 32 25 21
32 35 35 36 40 40 38 38 35 31 33 35 40 43 49 56 59 52 44 39 49 58 62 57 50 45 44 45 47 45 44 46 48 47 49 49 49 50 47 46 44 40 41 41 40 38 38 36 35 33 35 38 40 39 34 31 34 34 31 32 33 31 29 28 28 28 27 25 28 30 31 33 31 30 31 30 29 28 27 29 29 29 32 34 34 32 31
42 38 37 41 44 45 43 39 34 34 35 37 37 41 46 50 54 52 45 36 40 45 46 57 56 42 40 44 45 46 45 47 48 48 46 44 43 44 43 43 43 39 37 40 41 40 38 38 38 37 36 37 37 38 38 36 36 34 31 31 32 37 36 31 30 33 32 27 26 27 27 27 28 32 30 28 28 28 28 27 27 28 29 30 33 33 37